Terminal Aerodrome Forecast
Issued by NWS

Home | Current Version | Previous Version | Text Only | Print | Product List | Glossary On
Versions: 1 2 3 4 5 6 7 8 9 10 11 12 13 14 15 16 17 18 19 20 21 22 23 24 25 26 27 28 29 30 31 32 33 34 35 36 37 38 39 40 41 42 43 44 45 46 47 48 49 50
000
FTUS43 KMKX 011538 AAD
TAFENW
TAF AMD
KENW 011538Z 0116/0212 25005KT 3SM BR OVC005
      TEMPO 0116/0118 5SM BR SCT005 BKN200
     FM011800 25006KT P6SM BKN035
     FM020300 27010KT P6SM SCT100=

USA.gov is the U.S. government's official web portal to all federal, state and local government web resources and services.